Regional Weather Roundup
Issued by NWS

Home | Current Version | Previous Version | Graphics & Text | Print | Product List | Glossary On
Versions: 1 2 3 4 5 6 7 8 9 10 11 12 13 14 15 16 17 18 19 20 21 22 23 24 25 26 27 28 29 30 31 32 33 34 35 36 37 38 39 40 41 42 43 44 45 46 47 48 49 50
000
ASUS43 KBIS 271131
RWRND
NORTH DAKOTA REGIONAL WEATHER ROUNDUP
NATIONAL WEATHER SERVICE EASTERN NORTH DAKOTA/GRAND FORKS ND
600 AM CDT THU APR 27 2017

  NOTE: "FAIR" INDICATES FEW OR NO CLOUDS BELOW 12,000 FEET WITH NO
  SIGNIFICANT WEATHER AND/OR OBSTRUCTIONS TO VISIBILITY.

NDZ001>003-009>011-017-271200-
...NORTHWEST NORTH DAKOTA...

CITY           SKY/WX    TMP DP  RH WIND       PRES   REMARKS
WILLISTON      FAIR      26  21  81 N3        29.76F
MINOT          FAIR      24  19  81 NW7       29.76F WCI  16
MINOT AFB      NOT AVBL
$$

NDZ018>021-031>035-040>046-271200-
...SOUTHWEST NORTH DAKOTA...

CITY           SKY/WX    TMP DP  RH WIND       PRES   REMARKS
BISMARCK       FAIR      30  24  78 N7        29.74F WCI  23
DICKINSON      FAIR      17  15  92 SE3       29.71R
GARRISON         N/A     19  17  92 NW8       29.75F WCI   9
HETTINGER      CLOUDY    22  20  92 CALM      29.71F
$$

NDZ004>008-012>016-024-026-027-054-271200-
...NORTHEAST NORTH DAKOTA...

CITY           SKY/WX    TMP DP  RH WIND       PRES   REMARKS
GRAND FORKS    CLOUDY    28  25  88 N14       29.72F WCI  17
GRAND FORKS AF NOT AVBL
DEVILS LAKE    FAIR      27  22  81 N8        29.74S WCI  19
$$

NDZ022-023-025-028>030-036>039-047>053-271200-
...SOUTHEAST NORTH DAKOTA...

CITY           SKY/WX    TMP DP  RH WIND       PRES   REMARKS
JAMESTOWN      CLOUDY    30  26  85 N8        29.70S WCI  22
FARGO          MIX PCPN  26  23  88 N20       29.68F WCI  12
WAHPETON       CLOUDY    28  23  80 N17       29.67R WCI  16
$$



USA.gov is the U.S. government's official web portal to all federal, state and local government web resources and services.